sat.trackr.live / text

‹ back to catalog

STARLINK-35117

NORAD 65632 · 2025-210L

PAYLOAD ACTIVE UNKNOWN

§ Identity

Operator
Country
US
Launch date
2025-09-18
Launch site
AFETR
Launch vehicle
Mass (kg)
RCS (m²)

Purposes: comms

External: N2YO · Heavens-Above · Gunter

§ Orbital elements

Epoch: 2026-05-24T21:23:59.783424Z

Period
94.11 min
Inclination
53.1581°
Eccentricity
0.0001020
Mean motion
15.30195445 rev/d
Perigee alt
474.5 km
Apogee alt
475.9 km
Semi-major
6,853.4 km
B*
7.0867e-4
RAAN
313.4337°
Arg perigee
72.8068°
Mean anomaly
287.3045°
Rev number
3,939

§ Raw data

STARLINK-351171 65632U 25210L   26144.89166416  .00020685  00000+0  70867-3 0  99912 65632  53.1581 313.4337 0001020  72.8068 287.3045 15.30195445 39395

JSON: /api/v1/satellites/65632 · /tle

For live sub-satellite position, see the globe view (requires WebGL).

§ Visibility from observer

Set your observer location to see the next 7 days of passes ≥ 10°. The values pass through the URL so the page stays shareable.

No JS? Fill the form by hand. The geolocation button needs JavaScript.